This demonstration page uses our WeatherBlox Daily Observations layout. Learn more.

Left ArrowRight Arrow

39.08367, -84.50855

Hourly Observations for September 8, 2015

Temp ( °F °C ) Dew Point ( °F °C ) Humidity (%) Winds ( mph kmh ) Pressure ( in mb ) Visibility ( mi km ) Precip ( " mm )
12:53 am 00:53 Clear with Mist and Fog 70 21.1 70 21.1 100 100 Calm 30.03 1017 5 8 0.00 0.00
1:53 am 01:53 Clear with Mist and Fog 69 20.6 69 20.6 100 100 Calm 30.02 1017 5 8 0.00 0.00
2:29 am 02:29 Clear with Mist and Fog 69 20.6 69 20.6 100 100 Calm 30.00 1016 2 3 0.00 0.00
2:40 am 02:40 Clear with Mist and Fog 69 20.6 69 20.6 100 100 Calm 30.03 1017 3 5 0.00 0.00
2:53 am 02:53 Clear with Mist and Fog 70 21.1 70 21.1 100 100 Calm 30.03 1017 4 6 0.00 0.00
3:53 am 03:53 Clear with Mist and Fog 68 20 68 20 100 100 Calm 30.03 1017 5 8 0.00 0.00
4:00 am 04:00 Mostly Clear with Mist and Fog 67 19.4 67 19.4 100 100 Calm 30.03 1017 2 3 0.00 0.00
4:07 am 04:07 Mostly Clear with Mist and Fog 68 20 68 20 100 100 Calm 30.03 1017 2 2 0.00 0.00
4:15 am 04:15 Clear with Mist and Fog 69 20.6 68 20 96 96 Calm 30.03 1017 3 5 0.00 0.00
4:21 am 04:21 Clear with Mist and Fog 68 20 68 20 100 100 Calm 30.03 1017 1 2 0.00 0.00
4:27 am 04:27 Mostly Cloudy with Mist and Fog 68 20 68 20 100 100 Calm 30.03 1017 1 1 0.00 0.00
4:33 am 04:33 Clear with Mist and Fog 68 20 68 20 100 100 Calm 30.00 1016 2 3 0.00 0.00
4:43 am 04:43 Clear with Mist and Fog 68 20 68 20 100 100 Calm 30.00 1016 4 6 0.00 0.00
4:51 am 04:51 Mostly Clear with Mist and Fog 68 20 68 20 100 100 Calm 30.00 1016 1 2 0.00 0.00
4:53 am 04:53 Mostly Clear with Mist and Fog 68 20 68 20 100 100 Calm 30.03 1017 1 2 0.00 0.00
5:06 am 05:06 Clear with Mist and Fog 68 20 68 20 100 100 Calm 30.00 1016 2 2 0.00 0.00
5:15 am 05:15 Clear with Mist and Fog 68 20 68 20 100 100 Calm 30.00 1016 1 1 0.00 0.00
5:22 am 05:22 Clear with Mist and Fog 68 20 68 20 100 100 Calm 30.00 1016 2 3 0.00 0.00
5:40 am 05:40 Clear with Mist and Fog 68 20 68 20 100 100 Calm 30.00 1016 1 1 0.00 0.00
5:49 am 05:49 Mostly Cloudy with Fog 66 19 66 19 100 100 Calm 30.00 1016 0 0 0.00 0.00
5:53 am 05:53 Mostly Cloudy with Fog 66 18.9 66 18.9 100 100 Calm 30.03 1017 0 0 0.00 0.00
6:07 am 06:07 Mostly Cloudy with Mist and Fog 67 19.4 67 19.4 100 100 Calm 30.00 1016 1 2 0.00 0.00
6:14 am 06:14 Partly Cloudy with Mist and Fog 66 19 66 19 100 100 Calm 30.00 1016 2 2 0.00 0.00
6:20 am 06:20 Mostly Clear with Mist and Fog 67 19.4 67 19.4 100 100 Calm 30.00 1016 3 5 0.00 0.00
6:28 am 06:28 Clear with Mist and Fog 66 19 66 19 100 100 Calm 30.00 1016 2 3 0.00 0.00
6:39 am 06:39 Clear with Mist and Fog 67 19.4 67 19.4 100 100 Calm 30.00 1016 1 1 0.00 0.00
6:47 am 06:47 Clear with Mist and Fog 68 20 68 20 100 100 Calm 30.00 1016 2 3 0.00 0.00
6:48 am 06:48 Clear with Mist and Fog 68 20 68 20 100 100 Calm 30.02 1017 3 4 0.00 0.00
6:58 am 06:58 Clear with Mist and Fog 67 19.4 67 19.4 100 100 Calm 30.00 1016 3 5 0.00 0.00
7:53 am 07:53 Sunny with Mist and Fog 67 19.4 67 19.4 100 100 W 3 6 30.03 1017 5 8 0.00 0.00
8:53 am 08:53 Sunny with Mist and Fog 72 22.2 71 21.7 97 97 Calm 30.02 1017 5 8 0.00 0.00
9:53 am 09:53 Sunny 76 24.4 71 21.7 85 85 Calm 30.02 1017 7 11 0.00 0.00
10:53 am 10:53 Sunny 81 27.2 72 22.2 74 74 SSE 3 6 30.02 1017 9 14 0.00 0.00
11:53 am 11:53 Sunny 86 30 68 20 55 55 SW 8 13 30.00 1016 10 16 0.00 0.00
12:53 pm 12:53 Mostly Sunny 87 30.6 68 20 53 53 S 10 17 29.98 1015 10 16 0.00 0.00
1:53 pm 13:53 Partly Cloudy 87 30.6 68 20 53 53 SSW 9 15 29.96 1015 10 16 0.00 0.00
2:53 pm 14:53 Partly Cloudy 86 30 67 19.4 53 53 S 9 15 29.94 1014 10 16 0.00 0.00
3:53 pm 15:53 Partly Cloudy 88 31.1 69 20.6 54 54 S 9 15 29.91 1013 10 16 0.00 0.00
4:53 pm 16:53 Partly Cloudy 88 31.1 67 19.4 50 50 S 7 11 29.88 1012 10 16 0.00 0.00
5:53 pm 17:53 Mostly Sunny 86 30 67 19.4 53 53 S 10 17 29.88 1012 10 16 0.00 0.00
6:53 pm 18:53 Mostly Sunny 84 28.9 68 20 59 59 SSW 8 13 29.88 1012 10 16 0.00 0.00
7:53 pm 19:53 Sunny 79 26.1 70 21.1 74 74 S 3 6 29.89 1012 10 16 0.00 0.00
8:53 pm 20:53 Clear 75 23.9 70 21.1 84 84 Calm 29.91 1013 10 16 0.00 0.00
9:53 pm 21:53 Clear 73 22.8 70 21.1 90 90 Calm 29.92 1013 10 16 0.00 0.00
10:53 pm 22:53 Clear 71 21.7 69 20.6 94 94 Calm 29.90 1013 10 16 0.00 0.00
11:53 pm 23:53 Clear 70 21.1 69 20.6 97 97 Calm 29.89 1012 10 16 0.00 0.00

Powered by AerisWeather